GW6884 Weather Reports


time (UTC)temp
C
wind
direction
speed
KPH
gust
KPH
rain 1hr
cm
rain 24hr
cm
rain mn
cm
humidity
%
barometer
mb
20260502220029 17 71 9.7 19.3 0.00 0.00 0.00 26 1018.0
20260502214526 17 37 9.7 16.1 0.00 0.00 0.00 29 1017.9
20260502213028 16 335 4.8 11.3 0.00 0.00 0.00 29 1018.2
20260502211528 16 332 4.8 11.3 0.00 0.00 0.00 30 1018.3
20260502210019 16 297 8.0 14.5 0.00 0.00 0.00 28 1018.4
20260502204523 16 4 11.3 16.1 0.00 0.00 0.00 31 1018.5
20260502203027 16 117 8.0 17.7 0.00 0.00 0.00 27 1018.8
20260502201530 17 356 6.4 20.9 0.00 0.00 0.00 29 1018.8
20260502200008 17 45 8.0 17.7 0.00 0.00 0.00 29 1018.8
20260502194503 17 19 8.0 20.9 0.00 0.00 0.00 28 1019.1
20260502193008 17 56 9.7 16.1 0.00 0.00 0.00 27 1019.4
20260502191512 16 62 3.2 12.9 0.00 0.00 0.00 29 1019.6
20260502190011 16 23 12.9 19.3 0.00 0.00 0.00 28 1019.6
20260502184512 16 8 14.5 19.3 0.00 0.00 0.00 27 1020.0
20260502183005 15 360 8.0 14.5 0.00 0.00 0.00 29 1019.9
20260502181508 15 1 4.8 16.1 0.00 0.00 0.00 28 1020.1
20260502163014 13 359 9.7 14.5 0.00 0.00 0.00 28 1020.6
20260502161507 13 360 8.0 14.5 0.00 0.00 0.00 28 1020.5
20260502151516 11 349 1.6 9.7 0.00 0.00 0.00 33 1020.5
20260502123014 7 243 14.5 19.3 0.00 0.00 0.00 37 1019.3
20260502121518 7 234 12.9 19.3 0.00 0.00 0.00 40 1019.2
20260502114521 7 207 16.1 25.7 0.00 0.00 0.00 35 1019.2
20260502113014 7 238 14.5 25.7 0.00 0.00 0.00 35 1019.3
20260502111520 7 223 14.5 20.9 0.00 0.00 0.00 36 1019.4
20260502110025 7 240 12.9 22.5 0.00 0.00 0.00 35 1019.4
20260502104509 7 247 11.3 22.5 0.00 0.00 0.00 36 1019.4
20260502103014 7 245 14.5 24.1 0.00 0.00 0.00 36 1019.5
20260502101521 7 233 17.7 24.1 0.00 0.00 0.00 35 1019.5
20260502091516 7 229 12.9 19.3 0.00 0.00 0.00 38 1019.4
20260502071508 7 243 20.9 29.0 0.00 0.00 0.00 40 1020.0
20260502070018 7 227 14.5 27.4 0.00 0.00 0.00 41 1020.1
20260502064520 7 252 16.1 27.4 0.00 0.00 0.00 40 1020.1
20260502063026 7 243 12.9 20.9 0.00 0.00 0.00 41 1020.2
20260502061528 7 224 16.1 24.1 0.00 0.00 0.00 40 1020.2
20260502060015 7 251 16.1 24.1 0.00 0.00 0.00 39 1020.2
20260502054520 7 238 14.5 24.1 0.00 0.00 0.00 39 1020.2
20260502053023 7 235 12.9 22.5 0.00 0.00 0.00 39 1020.2
20260502051531 7 240 14.5 24.1 0.00 0.00 0.00 39 1020.2
20260502050028 8 230 17.7 25.7 0.00 0.00 0.00 39 1020.3
20260502044519 7 235 17.7 27.4 0.00 0.00 0.00 41 1020.3
20260502043023 7 238 17.7 24.1 0.00 0.00 0.00 42 1020.2
20260502041526 8 241 19.3 24.1 0.00 0.00 0.00 41 1020.3
20260502040037 8 252 16.1 27.4 0.00 0.00 0.00 42 1020.3
20260502034528 8 257 19.3 27.4 0.00 0.00 0.00 42 1020.1
20260502033019 8 264 12.9 25.7 0.00 0.00 0.00 42 1020.1
20260502031524 8 229 14.5 20.9 0.00 0.00 0.00 41 1020.1
20260502030028 8 234 11.3 16.1 0.00 0.00 0.00 41 1020.0
20260502024531 8 236 9.7 16.1 0.00 0.00 0.00 42 1019.9
20260502023016 8 236 6.4 11.3 0.00 0.00 0.00 44 1019.8
20260502021520 9 228 6.4 9.7 0.00 0.00 0.00 43 1019.8
20260502020024 11 248 8.0 11.3 0.00 0.00 0.00 39 1019.8
20260502014522 15 114 0.0 6.4 0.00 0.00 0.00 27 1019.6
20260502013014 15 103 3.2 6.4 0.00 0.00 0.00 26 1019.7
20260502011518 16 324 0.0 3.2 0.00 0.00 0.00 26 1019.6
20260502010022 16 339 3.2 9.7 0.00 0.00 0.00 25 1019.8
20260502004528 16 5 6.4 9.7 0.00 0.00 0.00 24 1019.9
20260502003012 16 1 3.2 8.0 0.00 0.00 0.00 25 1019.9
20260502001521 16 348 4.8 11.3 0.00 0.00 0.00 25 1020.0
20260502000023 16 342 3.2 11.3 0.00 0.00 0.00 24 1020.1
20260501234525 16 21 4.8 12.9 0.00 0.00 0.00 24 1020.2
20260501233028 16 344 6.4 16.1 0.00 0.00 0.00 24 1020.2
20260501231532 16 69 6.4 11.3 0.00 0.00 0.00 23 1020.1
20260501230029 16 129 4.8 14.5 0.00 0.00 0.00 24 1020.2
20260501224527 16 28 6.4 11.3 0.00 0.00 0.00 24 1020.3
20260501223034 16 85 9.7 16.1 0.00 0.00 0.00 23 1020.1
20260501221528 16 60 6.4 16.1 0.00 0.00 0.00 26 1020.3